| time (UTC) | temp F | wind direction | speed knots | gust knots | rain 1hr in | rain 24hr in | rain mn in | humidity % | barometer mb |
| 20260904021533 | 73 | 0 | 0.0 | 0.0 | 0.00 | 0.60 | 0.58 | 93 | 1012.9 |
| 20260904020039 | 73 | 0 | 0.0 | 0.0 | 0.00 | 0.60 | 0.58 | 93 | 1013.3 |
| 20260904014539 | 74 | 0 | 0.0 | 0.0 | 0.00 | 0.60 | 0.58 | 92 | 1013.1 |
| 20260904013035 | 74 | 0 | 0.0 | 0.0 | 0.00 | 0.60 | 0.58 | 92 | 1013.5 |
| 20260904011538 | 74 | 0 | 0.0 | 0.9 | 0.00 | 0.60 | 0.58 | 92 | 1013.9 |
| 20260904010044 | 74 | 0 | 0.0 | 0.0 | 0.00 | 0.60 | 0.58 | 91 | 1013.5 |
| 20260904004541 | 74 | 0 | 0.0 | 0.0 | 0.00 | 0.60 | 0.58 | 91 | 1013.3 |
| 20260904003035 | 75 | 0 | 0.0 | 0.0 | 0.00 | 0.60 | 0.58 | 90 | 1013.1 |
| 20260904001533 | 75 | 0 | 0.0 | 0.0 | 0.00 | 0.60 | 0.58 | 89 | 1012.8 |
| 20260904000034 | 75 | 0 | 0.0 | 0.0 | 0.00 | 0.60 | 0.58 | 88 | 1012.7 |
| 20260903234541 | 76 | 0 | 0.0 | 0.0 | 0.00 | 0.60 | 0.58 | 87 | 1013.0 |
| 20260903233034 | 77 | 0 | 0.0 | 0.0 | 0.00 | 0.60 | 0.58 | 85 | 1013.0 |
| 20260903231534 | 78 | 0 | 0.0 | 0.0 | 0.01 | 0.60 | 0.58 | 85 | 1013.0 |
| 20260903230033 | 79 | 0 | 0.0 | 0.0 | 0.01 | 0.60 | 0.58 | 82 | 1012.6 |
| 20260903224532 | 80 | 0 | 0.0 | 0.0 | 0.01 | 0.61 | 0.58 | 81 | 1012.5 |
| 20260903223042 | 80 | 0 | 0.0 | 0.0 | 0.01 | 0.61 | 0.58 | 79 | 1012.5 |
| 20260903221533 | 81 | 0 | 0.0 | 0.0 | 0.00 | 0.60 | 0.58 | 79 | 1012.5 |
| 20260903220040 | 82 | 0 | 0.0 | 0.9 | 0.00 | 0.60 | 0.58 | 81 | 1012.3 |
| 20260903214535 | 83 | 0 | 0.0 | 1.7 | 0.00 | 0.60 | 0.58 | 77 | 1012.0 |
| 20260903213038 | 84 | 292 | 0.0 | 0.0 | 0.00 | 0.60 | 0.58 | 76 | 1012.1 |
| 20260903211602 | 84 | 0 | 0.0 | 1.7 | 0.00 | 0.60 | 0.58 | 74 | 1012.2 |
| 20260903210035 | 83 | 0 | 0.0 | 2.6 | 0.00 | 0.60 | 0.58 | 73 | 1012.2 |
| 20260903204533 | 83 | 0 | 0.0 | 0.0 | 0.00 | 0.60 | 0.58 | 77 | 1012.2 |
| 20260903203032 | 84 | 0 | 0.0 | 2.6 | 0.00 | 0.60 | 0.58 | 73 | 1012.4 |
| 20260903201534 | 85 | 0 | 0.0 | 3.5 | 0.00 | 0.60 | 0.58 | 68 | 1012.4 |
| 20260903200032 | 85 | 0 | 0.0 | 3.5 | 0.00 | 0.60 | 0.58 | 67 | 1012.5 |
| 20260903194534 | 85 | 0 | 0.0 | 3.5 | 0.00 | 0.60 | 0.58 | 67 | 1012.4 |
| 20260903193035 | 85 | 246 | 0.9 | 6.1 | 0.00 | 0.60 | 0.58 | 69 | 1012.6 |
| 20260903191532 | 85 | 0 | 0.0 | 5.2 | 0.00 | 0.60 | 0.58 | 68 | 1012.9 |
| 20260903190033 | 84 | 0 | 0.0 | 2.6 | 0.00 | 0.60 | 0.58 | 69 | 1013.1 |
| 20260903184531 | 84 | 264 | 0.9 | 5.2 | 0.00 | 0.60 | 0.58 | 71 | 1013.2 |
| 20260903183033 | 84 | 254 | 0.0 | 3.5 | 0.00 | 0.60 | 0.58 | 72 | 1013.2 |
| 20260903181534 | 83 | 0 | 0.0 | 3.5 | 0.00 | 0.60 | 0.58 | 71 | 1013.5 |
| 20260903180035 | 83 | 308 | 0.0 | 4.3 | 0.00 | 0.60 | 0.58 | 72 | 1013.8 |
| 20260903174552 | 82 | 0 | 0.9 | 3.5 | 0.00 | 0.60 | 0.58 | 73 | 1013.8 |
| 20260903173039 | 82 | 0 | 0.0 | 4.3 | 0.00 | 0.60 | 0.58 | 76 | 1014.0 |
| 20260903171535 | 81 | 0 | 0.9 | 3.5 | 0.00 | 0.60 | 0.58 | 79 | 1014.2 |
| 20260903170042 | 80 | 0 | 0.0 | 7.0 | 0.00 | 0.60 | 0.58 | 81 | 1014.2 |
| 20260903164538 | 79 | 0 | 0.0 | 2.6 | 0.00 | 0.60 | 0.58 | 84 | 1014.8 |
| 20260903163032 | 78 | 0 | 0.0 | 3.5 | 0.00 | 0.60 | 0.58 | 84 | 1014.9 |
| 20260903161531 | 78 | 0 | 0.0 | 0.9 | 0.00 | 0.60 | 0.58 | 86 | 1015.3 |
| 20260903160035 | 78 | 0 | 0.0 | 3.5 | 0.00 | 0.60 | 0.58 | 87 | 1015.4 |
| 20260903154535 | 77 | 0 | 0.0 | 3.5 | 0.00 | 0.60 | 0.58 | 86 | 1015.5 |
| 20260903153036 | 77 | 0 | 0.0 | 3.5 | 0.00 | 0.60 | 0.58 | 89 | 1015.8 |
| 20260903151542 | 77 | 234 | 0.0 | 2.6 | 0.00 | 0.60 | 0.58 | 90 | 1015.8 |
| 20260903150034 | 75 | 0 | 0.0 | 3.5 | 0.00 | 0.60 | 0.58 | 92 | 1015.6 |
| 20260903144534 | 74 | 0 | 0.0 | 2.6 | 0.00 | 0.60 | 0.58 | 94 | 1015.8 |
| 20260903143037 | 73 | 0 | 0.0 | 2.6 | 0.00 | 0.60 | 0.58 | 97 | 1016.0 |
| 20260903141535 | 72 | 0 | 0.0 | 2.6 | 0.00 | 0.60 | 0.58 | 97 | 1015.7 |
| 20260903140035 | 72 | 0 | 0.0 | 1.7 | 0.00 | 0.60 | 0.58 | 98 | 1015.6 |
| 20260903134532 | 71 | 0 | 0.0 | 0.9 | 0.00 | 0.60 | 0.58 | 98 | 1015.3 |
| 20260903133033 | 71 | 0 | 0.0 | 0.0 | 0.00 | 0.60 | 0.58 | 98 | 1015.5 |
| 20260903131537 | 71 | 0 | 0.0 | 0.0 | 0.00 | 0.60 | 0.58 | 98 | 1015.5 |
| 20260903130030 | 70 | 0 | 0.0 | 0.0 | 0.00 | 0.60 | 0.58 | 98 | 1015.9 |
| 20260903124539 | 70 | 0 | 0.0 | 0.0 | 0.00 | 0.60 | 0.58 | 98 | 1015.7 |
| 20260903123036 | 70 | 0 | 0.0 | 1.7 | 0.00 | 0.60 | 0.58 | 98 | 1015.6 |
| 20260903121530 | 69 | 0 | 0.0 | 1.7 | 0.00 | 0.60 | 0.58 | 98 | 1015.4 |
| 20260903120031 | 69 | 0 | 0.0 | 1.7 | 0.00 | 0.60 | 0.58 | 98 | 1015.2 |
| 20260903114534 | 69 | 0 | 0.0 | 1.7 | 0.00 | 0.60 | 0.58 | 98 | 1014.5 |
| 20260903113033 | 69 | 0 | 0.9 | 2.6 | 0.00 | 0.60 | 0.58 | 98 | 1015.5 |
| 20260903111555 | 69 | 0 | 0.0 | 2.6 | 0.00 | 0.60 | 0.58 | 98 | 1015.7 |
| 20260903110036 | 69 | 0 | 0.0 | 2.6 | 0.00 | 0.60 | 0.58 | 98 | 1016.1 |
| 20260903104547 | 69 | 0 | 0.0 | 0.0 | 0.00 | 0.61 | 0.58 | 98 | 1016.2 |
| 20260903103032 | 69 | 220 | 0.0 | 2.6 | 0.01 | 0.61 | 0.58 | 98 | 1016.1 |
| 20260903101539 | 69 | 0 | 0.0 | 0.0 | 0.02 | 0.61 | 0.58 | 98 | 1015.9 |
| 20260903100036 | 68 | 0 | 0.0 | 0.9 | 0.05 | 0.61 | 0.58 | 98 | 1016.1 |
| 20260903094532 | 68 | 0 | 0.0 | 0.9 | 0.08 | 0.61 | 0.58 | 98 | 1015.4 |
| 20260903093039 | 68 | 0 | 0.0 | 2.6 | 0.10 | 0.60 | 0.57 | 98 | 1015.9 |
| 20260903091534 | 68 | 0 | 0.0 | 4.3 | 0.13 | 0.58 | 0.55 | 98 | 1015.7 |
| 20260903090033 | 68 | 0 | 0.0 | 1.7 | 0.15 | 0.56 | 0.52 | 98 | 1015.9 |
| 20260903084536 | 68 | 0 | 0.0 | 2.6 | 0.14 | 0.52 | 0.50 | 98 | 1016.8 |
| 20260903083033 | 68 | 0 | 0.0 | 0.0 | 0.11 | 0.50 | 0.47 | 98 | 1017.6 |
| 20260903081534 | 68 | 0 | 0.0 | 0.0 | 0.06 | 0.45 | 0.42 | 98 | 1017.1 |
| 20260903080033 | 68 | 0 | 0.0 | 0.0 | 0.02 | 0.41 | 0.38 | 98 | 1017.9 |
| 20260903074537 | 68 | 0 | 0.0 | 0.0 | 0.00 | 0.39 | 0.36 | 98 | 1017.7 |
| 20260903073042 | 68 | 0 | 0.0 | 0.0 | 0.03 | 0.39 | 0.36 | 98 | 1016.8 |
| 20260903071535 | 68 | 0 | 0.0 | 0.0 | 0.08 | 0.39 | 0.36 | 98 | 1016.8 |
| 20260903070039 | 68 | 0 | 0.0 | 0.0 | 0.09 | 0.39 | 0.36 | 98 | 1016.9 |
| 20260903064534 | 68 | 0 | 0.0 | 0.0 | 0.11 | 0.39 | 0.36 | 98 | 1016.7 |
| 20260903063035 | 68 | 0 | 0.0 | 0.0 | 0.20 | 0.36 | 0.33 | 97 | 1017.3 |
| 20260903061551 | 68 | 0 | 0.0 | 4.3 | 0.23 | 0.31 | 0.28 | 97 | 1016.9 |
| 20260903060034 | 68 | 269 | 0.0 | 3.5 | 0.26 | 0.30 | 0.27 | 97 | 1017.3 |
| 20260903054534 | 68 | 0 | 0.0 | 0.0 | 0.25 | 0.28 | 0.25 | 97 | 1017.4 |
| 20260903053034 | 68 | 0 | 0.0 | 3.5 | 0.12 | 0.15 | 0.12 | 98 | 1019.0 |
| 20260903051534 | 68 | 0 | 0.0 | 0.0 | 0.05 | 0.08 | 0.05 | 97 | 1018.9 |
| 20260903050035 | 68 | 0 | 0.0 | 0.0 | 0.00 | 0.03 | 0.00 | 97 | 1018.5 |
| 20260903044531 | 68 | 0 | 0.0 | 0.9 | 0.01 | 0.03 | 0.00 | 97 | 1018.5 |
| 20260903043037 | 68 | 0 | 0.0 | 0.0 | 0.01 | 0.03 | 0.00 | 97 | 1018.5 |
| 20260903041539 | 68 | 0 | 0.0 | 0.0 | 0.01 | 0.03 | 0.00 | 97 | 1018.5 |
| 20260903040036 | 68 | 0 | 0.0 | 0.0 | 0.01 | 0.03 | 0.00 | 97 | 1018.7 |
| 20260903034533 | 68 | 0 | 0.0 | 0.0 | 0.00 | 0.02 | 0.02 | 97 | 1018.9 |
| 20260903033031 | 68 | 0 | 0.0 | 0.0 | 0.00 | 0.02 | 0.02 | 97 | 1018.9 |
| 20260903031534 | 68 | 0 | 0.0 | 0.0 | 0.00 | 0.02 | 0.02 | 97 | 1018.6 |
| 20260903024535 | 68 | 0 | 0.0 | 1.7 | 0.00 | 0.02 | 0.02 | 97 | 1018.2 |
| 20260903023034 | 68 | 0 | 0.0 | 0.0 | 0.00 | 0.02 | 0.02 | 97 | 1018.5 |